User: anonymous   Login
Location: Unspecified
(0.0000°N, 0.0000°E)
Time: 09:28:24
(UTC+02:00)
Language:

Cosmos 1072 Rocket - Orbit

View from above orbital plane
View from above orbital plane
View from above satellite
View from above satellite

Ground track
Ground track

The orbit data is extracted from the following two-line orbital elements,

1 11239U 79003B   17230.93602167 +.00000119 +00000-0 +10706-3 0  9990
2 11239 082.9369 041.9879 0039930 216.1142 253.7640 13.75810597936229
Epoch (UTC): 18 August 2017 22:27:52
Eccentricity: 0.0039930
inclination: 82.9369°
perigee height: 949 km
apogee height: 1008 km
right ascension of ascending node: 41.9879°
argument of perigee: 216.1142°
revolutions per day: 13.75810597
mean anomaly at epoch: 253.7640°
orbit number at epoch: 93622

The dashed part of the orbit path shows where the satellite is in the earth's shadow,  

DLR